Cheyenne, WY

5:54 AM MDT on April 24, 2018 (GMT -0600)
Cheyenne

Weather History for KCYS - November, 2011

Change the Weather History Date:

Tuesday, November 22, 2011

  Actual Average Record
Temperature  
Mean Temperature 40 °F 32 °F  
Max Temperature 49 °F 43 °F 67 °F (1878)
Min Temperature 30 °F 22 °F -7 °F (1941)
Degree Days  
Heating Degree Days 25 33  
Month to date heating degree days 691 616  
Since 1 July heating degree days 1442 1475  
Cooling Degree Days 0 0  
Month to date cooling degree days 0 0  
Year to date cooling degree days 431 348  
Moisture  
Dew Point 19 °F    
Average Humidity 51    
Maximum Humidity 72    
Minimum Humidity 29    
Precipitation  
Precipitation 0.00 in 0.02 in 0.25 in (2003)
Month to date precipitation 0.72 0.44  
Year to date precipitation 18.72 15.30  
Snow  
Snow 0.00 in 0.30 in 7.40 in (2003)
Month to date snowfall 10.4 5.6  
Since 1 July snowfall 25.7 11.9  
Snow Depth 0.00 in    
Sea Level Pressure  
Sea Level Pressure 30.10 in    
Wind  
Wind Speed 22 mph (West)    
Max Wind Speed 37 mph    
Max Gust Speed 46 mph    
Visibility 10 miles    
Events Rain    
T = Trace of Precipitation, MM = Missing Value Source: NWS Daily Summary

Daily Weather History Graph

Daily Weather History Graph

Search for Another Location

Airport or City:

Astronomy

Nov. 22, 2011 Rise Set
Actual Time 6:55 AM MST 4:35 PM MST
Civil Twilight 6:25 AM MST 5:05 PM MST
Nautical Twilight 5:51 AM MST 5:39 PM MST
Astronomical Twilight 5:18 AM MST 6:11 PM MST
Moon 3:47 AM MST (11/22) 2:37 PM MST (11/22)
Length of Visible Light 10h 40m
Length of Day
9h 40m
Waning Crescent, 9% of the Moon is Illuminated
Nov 22
Waning Crescent
Nov 24
New
Dec 2
First Quarter
Dec 10
Full
Dec 17
Last Quarter

Hourly Weather History & Observations

Time (MST) Temp. Windchill Dew Point Humidity Pressure Visibility Wind Dir Wind Speed Gust Speed Precip Events Conditions
12:53 AM 30.9 °F 21.7 °F 23.0 °F 72% 30.04 in 10.0 mi West 11.5 mph - N/A   Clear
1:53 AM 33.8 °F 25.8 °F 23.0 °F 65% 30.05 in 10.0 mi WSW 10.4 mph - N/A   Clear
2:53 AM 34.0 °F 26.6 °F 21.0 °F 59% 30.03 in 10.0 mi West 9.2 mph - N/A   Clear
3:53 AM 36.0 °F 33.3 °F 19.9 °F 52% 30.04 in 10.0 mi Variable 3.5 mph - N/A   Clear
4:53 AM 37.0 °F 25.1 °F 19.0 °F 48% 30.05 in 9.0 mi West 26.5 mph 38.0 mph 0.00 in   Clear
5:53 AM 35.6 °F 23.4 °F 17.6 °F 48% 30.05 in 9.0 mi West 25.3 mph 34.5 mph N/A   Clear
6:53 AM 35.1 °F 24.5 °F 19.0 °F 52% 30.10 in 10.0 mi West 18.4 mph 27.6 mph N/A   Clear
7:53 AM 37.9 °F 26.6 °F 17.1 °F 43% 30.12 in 10.0 mi West 25.3 mph 34.5 mph N/A   Clear
8:53 AM 41.0 °F 31.1 °F 15.1 °F 35% 30.14 in 10.0 mi West 23.0 mph 29.9 mph N/A   Clear
9:53 AM 44.1 °F 35.4 °F 16.0 °F 32% 30.15 in 10.0 mi West 21.9 mph 32.2 mph N/A   Clear
10:53 AM 42.1 °F 33.1 °F 18.0 °F 38% 30.15 in 10.0 mi West 20.7 mph 29.9 mph N/A   Clear
11:53 AM 43.0 °F 32.5 °F 18.0 °F 37% 30.08 in 10.0 mi West 29.9 mph 38.0 mph N/A   Clear
12:53 PM 46.9 °F - 18.0 °F 32% 30.07 in 10.0 mi West 25.3 mph 36.8 mph 0.00 in   Clear
1:53 PM 48.0 °F - 17.1 °F 29% 30.04 in 10.0 mi WSW 29.9 mph 35.7 mph 0.00 in   Clear
2:53 PM 46.0 °F 37.2 °F 19.0 °F 34% 30.05 in 10.0 mi West 26.5 mph 36.8 mph N/A   Clear
3:53 PM 44.6 °F 34.6 °F 19.4 °F 37% 30.07 in 10.0 mi West 31.1 mph 46.0 mph N/A   Clear
4:53 PM 42.1 °F 34.2 °F 19.0 °F 40% 30.12 in 10.0 mi SW 16.1 mph 31.1 mph N/A   Clear
5:53 PM 42.8 °F 32.3 °F 19.4 °F 39% 30.11 in 10.0 mi WSW 29.9 mph 34.5 mph N/A   Clear
6:53 PM 41.0 °F 29.7 °F 19.9 °F 43% 30.13 in 10.0 mi West 31.1 mph 39.1 mph N/A   Clear
7:53 PM 41.0 °F 29.7 °F 19.0 °F 41% 30.11 in 10.0 mi West 31.1 mph 41.4 mph 0.00 in   Clear
8:53 PM 41.0 °F 30.9 °F 19.0 °F 41% 30.13 in 10.0 mi West 24.2 mph 34.5 mph 0.00 in Rain Light Rain
9:53 PM 39.9 °F 32.1 °F 19.9 °F 45% 30.15 in 10.0 mi West 13.8 mph - 0.00 in   Clear
10:53 PM 42.8 °F 35.8 °F 19.4 °F 39% 30.18 in 10.0 mi West 13.8 mph 21.9 mph N/A   Clear
11:53 PM 43.0 °F 34.2 °F 19.9 °F 40% 30.13 in 10.0 mi West 20.7 mph 28.8 mph 0.00 in   Clear